EW3060 Weather Reports


Display with metric or nautical units.
time (UTC)temp
F
wind
direction
speed
MPH
gust
MPH
rain 1hr
in
rain 24hr
in
rain mn
in
humidity
%
barometer
mb
20260902010013 76 212 1.0 3.0 0.00 0.00 0.00 29 1005.5
20260902004514 77 219 2.0 6.0 0.00 0.00 0.00 26 1005.5
20260902003012 77 191 1.0 8.0 0.00 0.00 0.00 26 1005.5
20260902001512 78 181 1.0 5.0 0.00 0.00 0.00 24 1005.6
20260902000022 78 210 2.0 8.0 0.00 0.00 0.00 23 1005.6
20260901234511 78 209 2.0 12.0 0.00 0.00 0.00 22 1005.7
20260901233011 78 197 2.0 5.0 0.00 0.00 0.00 26 1005.5
20260901231509 79 196 2.0 4.0 0.00 0.00 0.00 24 1005.7
20260901230019 79 172 2.0 9.0 0.00 0.00 0.00 21 1005.7
20260901224507 80 162 1.0 5.0 0.00 0.00 0.00 19 1005.9
20260901223006 79 195 2.0 8.0 0.00 0.00 0.00 18 1005.7
20260901221505 80 158 1.0 10.0 0.00 0.00 0.00 20 1005.8
20260901220008 79 199 2.0 5.0 0.00 0.00 0.00 22 1005.8
20260901214502 79 204 2.0 5.0 0.00 0.00 0.00 22 1006.1
20260901213005 80 202 2.0 5.0 0.00 0.00 0.00 19 1006.2
20260901211601 80 209 1.0 6.0 0.00 0.00 0.00 18 1006.1
20260901210059 79 227 1.0 4.0 0.00 0.00 0.00 19 1006.2
20260901204558 79 197 2.0 7.0 0.00 0.00 0.00 19 1006.3
20260901203101 79 197 1.0 9.0 0.00 0.00 0.00 18 1006.5
20260901201554 78 144 2.0 10.0 0.00 0.00 0.00 19 1006.7
20260901200055 78 193 1.0 10.0 0.00 0.00 0.00 20 1006.9
20260901194551 78 188 1.0 5.0 0.00 0.00 0.00 20 1007.1
20260901193100 77 152 1.0 4.0 0.00 0.00 0.00 19 1007.2
20260901191556 78 181 1.0 4.0 0.00 0.00 0.00 19 1007.4
20260901190049 77 194 2.0 6.0 0.00 0.00 0.00 18 1007.4
20260901184548 76 191 1.0 4.0 0.00 0.00 0.00 17 1007.5
20260901183051 77 201 1.0 3.0 0.00 0.00 0.00 17 1007.5
20260901181547 77 204 1.0 4.0 0.00 0.00 0.00 18 1007.4
20260901180045 76 229 1.0 3.0 0.00 0.00 0.00 18 1007.5
20260901174544 76 180 1.0 5.0 0.00 0.00 0.00 18 1007.4
20260901173042 75 189 1.0 3.0 0.00 0.00 0.00 17 1007.2
20260901171540 74 208 1.0 4.0 0.00 0.00 0.00 18 1007.2
20260901170038 74 187 1.0 6.0 0.00 0.00 0.00 17 1007.2
20260901164536 74 222 1.0 5.0 0.00 0.00 0.00 18 1006.9
20260901163035 74 206 1.0 9.0 0.00 0.00 0.00 18 1006.8
20260901161537 73 184 2.0 5.0 0.00 0.00 0.00 18 1006.7
20260901160035 73 198 2.0 5.0 0.00 0.00 0.00 18 1006.8
20260901154530 72 214 1.0 9.0 0.00 0.00 0.00 19 1006.8
20260901153028 72 204 1.0 5.0 0.00 0.00 0.00 19 1006.5
20260901151526 72 198 1.0 4.0 0.00 0.00 0.00 18 1006.5
20260901150022 71 204 1.0 4.0 0.00 0.00 0.00 21 1006.4
20260901144520 69 197 0.0 4.0 0.00 0.00 0.00 26 1006.4
20260901143018 68 201 0.0 1.0 0.00 0.00 0.00 29 1006.3
20260901141516 67 359 0.0 2.0 0.00 0.00 0.00 31 1006.1
20260901140015 66 359 0.0 2.0 0.00 0.00 0.00 33 1005.9
20260901134513 66 193 0.0 3.0 0.00 0.00 0.00 35 1005.8
20260901133013 66 197 0.0 4.0 0.00 0.00 0.00 36 1005.5
20260901131521 66 204 1.0 2.0 0.00 0.00 0.00 38 1005.4
20260901130011 66 199 1.0 6.0 0.00 0.00 0.00 38 1005.4
20260901124510 66 196 0.0 4.0 0.00 0.00 0.00 39 1005.2
20260901123015 66 185 1.0 3.0 0.00 0.00 0.00 38 1005.3
20260901121509 66 199 1.0 2.0 0.00 0.00 0.00 42 1005.4
20260901120019 66 226 1.0 3.0 0.00 0.00 0.00 43 1005.3
20260901114514 65 210 1.0 6.0 0.00 0.00 0.00 45 1005.4
20260901113006 65 226 0.0 2.0 0.00 0.00 0.00 45 1005.4
20260901111503 65 183 1.0 2.0 0.00 0.00 0.00 44 1005.2
20260901110001 66 193 0.0 2.0 0.00 0.00 0.00 44 1005.4
20260901104606 66 191 1.0 3.0 0.00 0.00 0.00 42 1005.4
20260901103059 66 233 1.0 4.0 0.00 0.00 0.00 40 1005.4
20260901101556 67 232 1.0 7.0 0.00 0.00 0.00 39 1005.2
20260901100056 67 217 1.0 4.0 0.00 0.00 0.00 38 1005.2
20260901094555 67 215 1.0 3.0 0.00 0.00 0.00 38 1005.2
20260901093054 66 220 1.0 2.0 0.00 0.00 0.00 40 1005.2
20260901091552 66 203 1.0 2.0 0.00 0.00 0.00 42 1005.4
20260901090050 66 205 0.0 2.0 0.00 0.00 0.00 39 1005.4
20260901084547 67 187 0.0 2.0 0.00 0.00 0.00 35 1005.5
20260901083044 67 193 0.0 4.0 0.00 0.00 0.00 34 1005.6
20260901081545 67 197 0.0 2.0 0.00 0.00 0.00 32 1005.7
20260901080039 68 214 1.0 2.0 0.00 0.00 0.00 32 1005.7
20260901074540 69 199 1.0 2.0 0.00 0.00 0.00 31 1005.7
20260901073034 69 212 1.0 5.0 0.00 0.00 0.00 29 1005.6
20260901071531 70 221 1.0 2.0 0.00 0.00 0.00 26 1005.7
20260901070032 70 199 1.0 2.0 0.00 0.00 0.00 23 1005.5
20260901064537 70 189 1.0 3.0 0.00 0.00 0.00 23 1005.6
20260901063030 70 201 1.0 2.0 0.00 0.00 0.00 24 1005.5
20260901061525 69 207 1.0 2.0 0.00 0.00 0.00 26 1005.5
20260901060022 71 183 1.0 3.0 0.00 0.00 0.00 23 1005.4
20260901054523 71 212 1.0 3.0 0.00 0.00 0.00 23 1005.3
20260901053021 71 197 1.0 3.0 0.00 0.00 0.00 23 1005.2
20260901051520 71 194 1.0 3.0 0.00 0.00 0.00 22 1005.3
20260901050020 71 190 1.0 3.0 0.00 0.00 0.00 24 1005.2
20260901044518 71 194 1.0 3.0 0.00 0.00 0.00 28 1004.9
20260901043021 71 191 1.0 3.0 0.00 0.00 0.00 31 1004.8
20260901041516 71 189 1.0 3.0 0.00 0.00 0.00 34 1004.8
20260901040016 70 181 1.0 3.0 0.00 0.00 0.00 42 1004.4
20260901034517 70 179 1.0 3.0 0.00 0.00 0.00 48 1004.3
20260901033014 71 183 1.0 2.0 0.00 0.00 0.00 49 1004.2
20260901031513 71 212 1.0 3.0 0.00 0.00 0.00 49 1003.7
20260901030012 72 195 1.0 3.0 0.00 0.00 0.00 48 1003.4
20260901024512 72 208 1.0 6.0 0.00 0.00 0.00 47 1003.0
20260901023026 73 168 1.0 3.0 0.00 0.00 0.00 46 1002.8
20260901021518 74 180 1.0 3.0 0.00 0.00 0.00 42 1002.9
20260901020010 75 189 1.0 4.0 0.00 0.00 0.00 40 1003.2
20260901014509 77 194 1.0 5.0 0.00 0.00 0.00 37 1003.4
20260901013009 78 181 1.0 9.0 0.00 0.00 0.00 32 1003.1
20260901011508 79 197 1.0 4.0 0.00 0.00 0.00 31 1003.3